Weather in Psebaj

Russia / Krasnodar Krai     44°06′57″N   40°47′54″E
temp.,
°C
wind,
m/s
gust,
m/s
humid.,
%
clouds,
%
prec.,
mm/h
press.,
hPa
HPBL,
m
25 july, sun
sun2500:00+13ssw22950 0.0 101527
03:00+12ssw32942 0.0 101535
06:00+13ssw22930 0.0 101541
09:00+20nne216489 0.1 1014727
12:00+23n325624 0.7 10141349
15:00+21ne127532 3.3 1014979
18:00+19nne228161 0.9 1015149
21:00+17sw11905 0.9 101617
26 july, mon
mon2600:00+14ssw32920 0.0 101635
03:00+14ssw32860 0.0 101632
06:00+15ssw33820 0.0 101641
09:00+22nne21594 0.0 1014622
12:00+25n32561 0.1 10141182
15:00+24nne326754 1.8 1014875
18:00+19nne119222 2.1 1015112
21:00+16s229644 2.6 101630
27 july, tue
tue2700:00+15sw119384 0.0 101411
03:00+15s4795100 1.5 1015162
06:00+13s2293100 0.8 101644
09:00+18nnw217355 0.8 1015661
12:00+15n2399100 1.5 1016511
15:00+14n23100100 8.3 1016211
18:00+13n23100100 7.2 1017236
21:00+11nne12100100 14.8 1019145
28 july, wed
wed2800:00+11ene11100100 2.0 101982
03:00+11ssw1197100 2.1 101817
06:00+11se009827 0.0 101854
09:00+16nne227418 0.0 1017582
12:00+20nne335872 0.1 10161370
15:00+18nne336583 0.1 10161059
18:00+17ne237971 0.1 1017325
21:00+12s11960 0.1 101812
29 july, thu
thu2900:00+11s32920 0.0 101737
03:00+11ssw32810 0.0 101635
06:00+12ssw22743 0.0 101637
09:00+19nne21570 0.0 1015641
12:00+22nne32533 0.0 10141250
15:00+22n325575 0.0 10141323
18:00+19n226819 0.0 1015373
21:00+13ssw22900 0.0 101626